Temp
-10 -10 -9 -9 -9 -9 -9 -9 -9 -9 -9 -9 -9 -9 -9 -9 -9 -9 -9 -9 -8 -8 -8 -9 -9 -9 -9 -9 -9 -9 -9 -9 -9 -9 -9 -9 -9 -9 -9 -9 -9 -10 -10
-10 -10 -10 -10 -9 -9 -9 -9 -9 -9 -9 -9 -9 -9 -9 -9 -9 -9 -9 -9 -9 -9 -9 -9 -9 -9 -9 -9 -9 -9 -9 -9 -9 -9 -9 -9 -9 -9 -9 -10 -10 -10 -11
-10 -10 -10 -10 -10 -10 -9 -9 -9 -9 -9 -9 -9 -9 -9 -9 -9 -9 -9 -9 -9 -9 -10 -9 -9 -9 -9 -9 -9 -9 -9 -9 -9 -9 -9 -9 -9 -9 -9 -10 -10 -10 -10
-10 -10 -10 -10 -10 -10 -10 -10 -10 -9 -9 -9 -9 -9 -9 -9 -9 -9 -9 -9 -10 -10 -10 -10 -10 -10 -10 -9 -10 -9 -9 -9 -9 -9 -9 -9 -9 -9 -9 -10 -10 -10 -10
-11 -11 -11 -10 -10 -10 -10 -10 -11 -10 -10 -9 -9 -9 -9 -9 -9 -9 -9 -10 -10 -10 -10 -10 -10 -10 -10 -10 -10 -10 -9 -9 -9 -9 -9 -9 -9 -9 -9 -9 -10 -10 -11
-11 -11 -11 -11 -11 -11 -10 -10 -10 -11 -11 -10 -10 -9 -9 -9 -9 -9 -9 -10 -10 -10 -10 -10 -10 -10 -10 -10 -10 -10 -10 -10 -10 -9 -9 -9 -9 -9 -9 -9 -10 -10 -10
-11 -11 -11 -11 -11 -11 -11 -11 -11 -10 -11 -11 -11 -10 -10 -10 -10 -10 -10 -10 -10 -10 -10 -10 -10 -10 -10 -11 -10 -10 -10 -10 -10 -9 -9 -9 -9 -10 -10 -10 -10 -10 -10
-11 -12 -12 -12 -11 -11 -11 -11 -11 -11 -11 -11 -11 -11 -11 -11 -11 -11 -10 -10 -11 -11 -10 -10 -10 -10 -10 -10 -10 -11 -10 -10 -10 -10 -10 -10 -10 -10 -10 -10 -10 -10 -10
-11 -11 -11 -12 -12 -12 -11 -11 -12 -12 -11 -11 -11 -11 -11 -11 -11 -11 -11 -11 -11 -11 -11 -11 -11 -11 -10 -10 -11 -10 -11 -11 -11 -10 -10 -10 -10 -10 -11 -10 -10 -10 -10
-11 -11 -11 -12 -11 -12 -12 -12 -12 -12 -12 -12 -11 -11 -11 -11 -11 -11 -11 -11 -12 -12 -11 -11 -11 -11 -11 -11 -11 -11 -11 -11 -11 -11 -11 -11 -11 -11 -11 -11 -11 -11 -11
-12 -12 -12 -11 -12 -12 -12 -12 -13 -12 -12 -12 -12 -12 -12 -11 -11 -12 -11 -11 -12 -12 -12 -12 -11 -11 -11 -12 -11 -11 -12 -12 -11 -11 -11 -11 -11 -11 -11 -11 -11 -11 -11
-13 -12 -12 -12 -12 -12 -12 -12 -12 -12 -12 -12 -12 -12 -12 -12 -12 -12 -12 -12 -11 -12 -12 -11 -11 -11 -11 -11 -12 -12 -12 -12 -12 -12 -12 -12 -12 -12 -11 -12 -12 -12 -12
-16 -15 -13 -12 -12 -12 -12 -13 -13 -12 -13 -13 -13 -12 -12 -13 -13 -12 -13 -12 -12 -12 -12 -12 -12 -11 -12 -12 -12 -12 -12 -12 -12 -12 -12 -12 -12 -12 -12 -12 -12 -12 -12
-17 -16 -16 -14 -13 -13 -13 -13 -13 -13 -13 -13 -13 -13 -13 -13 -14 -13 -13 -13 -12 -12 -13 -12 -13 -13 -12 -13 -12 -12 -12 -12 -12 -13 -13 -13 -12 -12 -12 -12 -12 -12 -12
-17 -17 -18 -17 -17 -17 -16 -15 -14 -13 -13 -13 -13 -13 -13 -13 -13 -14 -13 -13 -13 -13 -13 -13 -13 -13 -12 -12 -12 -13 -13 -13 -13 -13 -13 -13 -13 -13 -12 -12 -13 -13 -12
-17 -18 -18 -19 -19 -19 -19 -19 -18 -16 -15 -14 -14 -14 -14 -14 -14 -14 -14 -14 -13 -14 -13 -13 -13 -13 -13 -13 -13 -13 -13 -14 -13 -13 -14 -14 -13 -12 -12 -13 -12 -12 -12
-18 -18 -19 -19 -19 -19 -19 -19 -19 -19 -18 -17 -16 -15 -15 -15 -14 -14 -14 -14 -14 -14 -13 -13 -13 -13 -13 -14 -13 -13 -12 -13 -13 -15 -14 -13 -13 -12 -12 -12 -12 -12 -11
-18 -19 -19 -19 -19 -19 -19 -19 -19 -19 -19 -19 -19 -18 -17 -17 -16 -15 -15 -14 -14 -14 -14 -13 -13 -13 -13 -13 -12 -12 -11 -12 -12 -13 -13 -13 -14 -14 -12 -12 -11 -12 -12
-18 -18 -18 -18 -19 -19 -19 -19 -19 -19 -19 -19 -19 -19 -19 -18 -18 -17 -17 -16 -15 -15 -14 -13 -13 -13 -13 -13 -12 -12 -12 -11 -12 -12 -12 -12 -12 -13 -12 -12 -13 -13 -12
-18 -18 -18 -18 -18 -18 -18 -18 -18 -18 -18 -18 -18 -18 -18 -18 -18 -18 -18 -18 -17 -17 -17 -16 -15 -14 -14 -13 -12 -12 -12 -12 -11 -11 -11 -11 -12 -12 -12 -11 -12 -12 -12
-18 -18 -18 -18 -18 -18 -18 -18 -18 -18 -18 -18 -18 -18 -18 -18 -18 -17 -17 -17 -17 -17 -17 -17 -17 -16 -16 -15 -14 -13 -12 -12 -12 -12 -11 -11 -11 -11 -11 -11 -11 -11 -11
-18 -18 -18 -18 -18 -18 -18 -18 -18 -18 -18 -18 -18 -18 -18 -18 -18 -17 -17 -17 -17 -17 -17 -17 -17 -17 -17 -16 -16 -16 -14 -13 -13 -14 -13 -12 -11 -12 -12 -11 -11 -11 -12
-18 -18 -18 -18 -18 -18 -18 -18 -18 -18 -18 -18 -19 -19 -18 -18 -18 -18 -18 -18 -18 -18 -18 -17 -17 -18 -17 -17 -16 -16 -16 -15 -15 -15 -15 -14 -14 -13 -13 -13 -13 -13 -13
-18 -18 -19 -18 -18 -18 -18 -18 -19 -19 -19 -19 -19 -19 -19 -20 -21 -22 -23 -23 -24 -23 -23 -21 -20 -20 -19 -19 -19 -18 -18 -18 -17 -17 -17 -16 -17 -16 -16 -15 -15 -14 -14
-19 -19 -19 -19 -19 -19 -19 -19 -19 -20 -20 -20 -20 -21 -23 -24 -24 -24 -24 -24 -24 -25 -25 -25 -24 -24 -24 -23 -22 -21 -21 -20 -19 -19 -19 -18 -18 -18 -18 -18 -17 -16 -16
-19 -19 -19 -19 -19 -19 -19 -20 -20 -20 -20 -20 -21 -24 -24 -25 -24 -24 -24 -24 -24 -25 -26 -27 -27 -27 -27 -27 -26 -24 -23 -22 -21 -20 -20 -20 -19 -19 -19 -19 -18 -18 -17
Height
5869 5869 5870 5870 5869 5869 5867 5866 5865 5865 5865 5865 5865 5865 5864 5863 5864 5864 5864 5865 5865 5864 5864 5864 5864 5864 5863 5862 5861 5860 5859 5857 5856 5854 5853 5853 5852 5851 5850 5849 5848 5847 5845
5863 5863 5864 5864 5865 5864 5864 5864 5863 5861 5860 5858 5857 5857 5857 5857 5857 5857 5857 5858 5858 5858 5858 5857 5857 5857 5856 5856 5855 5854 5853 5852 5850 5849 5848 5847 5847 5846 5845 5844 5844 5843 5841
5858 5858 5858 5857 5857 5858 5859 5859 5859 5858 5857 5855 5854 5851 5850 5851 5852 5851 5851 5851 5851 5851 5851 5851 5850 5849 5849 5849 5848 5847 5846 5845 5844 5843 5842 5842 5842 5841 5840 5839 5838 5837 5835
5851 5851 5852 5852 5851 5850 5851 5852 5852 5852 5852 5851 5850 5848 5846 5845 5844 5844 5843 5844 5843 5843 5843 5843 5842 5841 5841 5840 5840 5840 5839 5838 5837 5836 5836 5836 5836 5835 5835 5833 5832 5831 5830
5842 5842 5843 5844 5844 5843 5843 5843 5843 5844 5844 5843 5844 5843 5842 5842 5840 5838 5837 5837 5836 5836 5835 5835 5834 5833 5833 5832 5832 5831 5831 5831 5831 5830 5829 5829 5828 5828 5827 5827 5826 5825 5824
5833 5832 5833 5833 5833 5833 5833 5834 5834 5833 5834 5834 5834 5835 5835 5834 5834 5833 5833 5830 5828 5828 5827 5826 5825 5825 5824 5825 5825 5824 5824 5823 5822 5822 5822 5821 5821 5820 5820 5819 5818 5817 5816
5822 5822 5822 5822 5822 5822 5823 5823 5822 5823 5822 5822 5822 5824 5825 5824 5825 5825 5824 5824 5823 5820 5818 5817 5817 5817 5816 5815 5814 5815 5814 5815 5814 5813 5813 5813 5812 5812 5812 5812 5811 5810 5809
5810 5809 5810 5810 5811 5811 5811 5810 5810 5811 5811 5810 5810 5810 5811 5813 5813 5812 5811 5811 5812 5813 5812 5811 5810 5809 5808 5808 5810 5807 5805 5804 5804 5805 5804 5804 5804 5805 5805 5804 5804 5803 5801
5794 5795 5796 5796 5796 5797 5797 5797 5797 5797 5798 5798 5798 5796 5796 5796 5798 5798 5796 5798 5796 5797 5799 5800 5800 5799 5799 5799 5798 5799 5799 5797 5795 5795 5795 5795 5796 5795 5795 5795 5794 5794 5793
5778 5778 5779 5780 5780 5782 5781 5782 5783 5783 5783 5784 5784 5783 5784 5784 5781 5784 5782 5781 5782 5783 5783 5785 5787 5788 5787 5787 5786 5786 5788 5788 5787 5786 5786 5786 5786 5786 5785 5784 5784 5783 5782
5761 5760 5761 5761 5762 5764 5764 5766 5768 5768 5768 5769 5768 5769 5768 5767 5761 5766 5767 5767 5766 5766 5770 5769 5771 5771 5773 5773 5772 5773 5773 5773 5774 5774 5774 5774 5775 5774 5773 5772 5771 5770 5769
5740 5739 5740 5741 5743 5744 5745 5746 5748 5749 5751 5752 5751 5751 5750 5751 5747 5745 5744 5744 5749 5754 5752 5753 5756 5757 5757 5756 5755 5756 5757 5758 5759 5760 5760 5759 5758 5758 5758 5758 5757 5756 5754
5726 5721 5718 5719 5721 5723 5724 5725 5727 5729 5731 5733 5733 5734 5732 5730 5730 5731 5726 5725 5725 5731 5733 5734 5737 5735 5735 5737 5738 5737 5742 5739 5739 5741 5741 5742 5743 5743 5743 5743 5742 5742 5741
5716 5709 5701 5697 5698 5699 5701 5704 5705 5707 5710 5712 5714 5716 5715 5713 5713 5711 5709 5708 5708 5710 5715 5720 5718 5715 5713 5711 5714 5717 5718 5725 5728 5726 5727 5728 5726 5725 5725 5725 5725 5724 5723
5706 5699 5691 5683 5680 5679 5680 5682 5684 5686 5689 5691 5694 5694 5695 5695 5693 5693 5691 5690 5691 5690 5699 5700 5696 5694 5693 5693 5695 5698 5700 5703 5708 5707 5708 5709 5707 5706 5704 5703 5706 5706 5704
5701 5694 5688 5682 5676 5673 5671 5668 5667 5668 5669 5670 5672 5674 5675 5675 5672 5672 5671 5670 5669 5671 5674 5682 5680 5676 5676 5678 5678 5678 5680 5685 5688 5682 5684 5686 5687 5686 5684 5683 5684 5686 5686
5697 5691 5686 5680 5674 5671 5667 5663 5660 5658 5655 5655 5654 5653 5653 5655 5655 5654 5649 5647 5647 5647 5651 5657 5657 5658 5660 5661 5661 5660 5661 5663 5664 5663 5667 5666 5665 5666 5664 5666 5664 5665 5667
5695 5690 5685 5679 5675 5670 5666 5661 5657 5653 5650 5646 5642 5639 5637 5634 5632 5631 5630 5628 5626 5623 5625 5632 5631 5632 5632 5635 5638 5640 5641 5642 5645 5645 5646 5649 5644 5644 5643 5647 5643 5644 5648
5690 5686 5681 5676 5671 5667 5662 5658 5653 5649 5643 5639 5633 5629 5624 5620 5615 5611 5607 5604 5602 5600 5597 5602 5607 5605 5605 5606 5610 5614 5619 5621 5622 5621 5624 5625 5627 5627 5628 5627 5628 5628 5631
5686 5681 5675 5670 5665 5660 5655 5650 5645 5640 5634 5629 5622 5616 5610 5604 5600 5594 5589 5584 5580 5576 5574 5574 5576 5576 5578 5579 5581 5585 5591 5591 5597 5598 5599 5602 5603 5605 5608 5610 5611 5610 5612
5680 5675 5669 5664 5659 5653 5647 5641 5635 5628 5622 5615 5607 5599 5592 5584 5578 5572 5569 5564 5559 5555 5552 5550 5552 5552 5551 5551 5554 5555 5558 5561 5567 5569 5572 5573 5580 5583 5583 5586 5588 5589 5591
5674 5668 5662 5656 5650 5643 5636 5630 5623 5615 5606 5597 5589 5580 5572 5565 5558 5551 5545 5539 5534 5530 5527 5523 5525 5527 5526 5525 5527 5527 5527 5531 5539 5538 5539 5546 5550 5554 5555 5559 5563 5566 5567
5666 5660 5654 5647 5641 5634 5626 5618 5609 5600 5590 5580 5569 5560 5549 5540 5532 5527 5520 5513 5507 5500 5496 5494 5497 5496 5498 5498 5502 5501 5499 5503 5507 5510 5507 5518 5519 5522 5528 5531 5535 5538 5544
5658 5652 5645 5638 5631 5623 5615 5606 5596 5585 5574 5562 5550 5538 5527 5516 5508 5502 5498 5492 5487 5479 5471 5466 5465 5466 5467 5469 5470 5472 5476 5477 5482 5484 5481 5490 5495 5497 5501 5506 5511 5515 5518
5651 5644 5637 5629 5621 5612 5603 5593 5582 5571 5558 5545 5531 5517 5508 5501 5494 5488 5485 5481 5473 5463 5455 5450 5446 5444 5442 5444 5447 5449 5452 5456 5461 5463 5461 5464 5473 5475 5481 5485 5491 5495 5496
5643 5636 5628 5620 5611 5602 5592 5581 5571 5559 5547 5532 5515 5503 5497 5491 5484 5478 5473 5468 5463 5454 5446 5440 5436 5432 5429 5429 5429 5431 5434 5437 5441 5446 5445 5447 5452 5457 5463 5466 5472 5476 5478
Wind_Speed
19 20 21 21 21 21 21 22 23 23 23 24 25 26 28 29 29 30 30 29 29 29 29 29 28 29 29 29 28 28 30 29 30 29 28 26 24 23 22 22 19 18 20
26 24 23 24 26 27 26 25 24 25 26 27 28 29 30 31 31 30 31 30 30 30 30 30 30 30 31 31 31 30 32 33 32 31 29 26 25 24 22 20 18 19 21
35 34 32 28 28 30 31 31 30 29 28 29 30 32 33 33 33 33 33 31 31 31 32 32 32 33 33 33 33 34 35 35 34 32 30 28 27 25 22 22 22 22 21
40 40 40 39 37 35 34 34 33 34 35 35 34 35 34 34 34 35 35 34 34 34 34 35 35 36 36 36 37 39 37 36 36 34 31 29 28 26 25 25 25 25 25
45 45 45 45 45 45 42 39 38 38 38 40 40 40 39 37 36 37 37 36 37 37 37 38 39 39 40 40 40 39 38 38 38 37 34 30 28 28 29 29 29 29 28
48 50 50 50 50 51 50 48 46 45 44 44 43 44 43 43 42 42 40 39 38 38 40 41 41 41 42 41 41 41 40 40 40 39 36 32 32 32 32 32 33 32 33
57 56 54 54 54 55 56 56 55 53 51 49 49 48 47 47 45 45 46 45 44 43 43 44 44 44 45 45 44 43 44 43 42 41 39 37 36 36 36 37 37 36 37
63 63 63 62 61 60 60 60 61 60 58 57 56 55 53 53 52 51 50 48 47 48 49 47 46 46 47 47 47 47 45 44 44 44 43 42 40 41 41 41 41 40 41
67 69 70 69 66 66 67 65 64 65 64 64 63 63 61 61 59 58 60 54 54 51 51 50 51 49 49 49 48 47 48 49 48 47 47 46 45 45 46 46 46 46 46
66 67 71 74 74 71 70 70 69 68 67 69 69 70 68 71 69 66 66 66 63 60 56 56 55 54 54 52 52 50 49 50 52 51 50 50 50 50 50 50 51 51 51
70 72 73 73 75 77 77 74 72 72 73 72 72 74 73 71 63 67 67 74 71 67 65 66 64 63 59 58 58 56 52 51 53 53 54 54 54 55 55 56 55 55 54
66 72 78 79 79 79 80 83 81 79 77 76 77 78 77 75 87 87 82 71 77 86 81 78 73 73 72 68 64 62 58 54 54 56 57 58 59 60 60 60 59 59 59
39 50 66 75 82 85 85 85 85 85 84 82 81 81 83 84 83 81 88 84 85 82 77 72 66 77 84 78 76 69 67 64 61 60 61 62 63 63 64 64 64 64 64
45 46 44 53 68 78 86 90 89 88 87 86 84 83 84 84 80 84 87 82 86 84 82 74 76 87 75 84 87 84 77 74 70 67 66 67 67 68 69 70 70 71 72
37 36 36 32 48 57 70 83 90 92 92 90 88 88 87 88 87 83 87 87 83 85 76 81 82 78 66 70 74 73 83 74 75 77 77 77 78 76 77 80 79 77 77
30 31 31 27 24 28 37 46 58 77 92 96 95 91 90 91 93 93 93 92 94 92 94 84 63 63 68 69 68 66 75 73 87 84 76 82 84 86 88 88 81 84 82
29 29 29 28 28 28 27 28 31 37 46 63 81 94 95 93 94 96 97 96 96 96 97 96 96 97 93 90 87 86 91 81 79 67 65 68 86 96 91 88 92 91 93
27 27 27 27 28 28 28 30 30 31 33 34 38 46 62 69 82 91 98 99 102 101 100 101 102 101 99 92 90 86 92 95 81 81 74 71 52 58 65 76 65 67 71
28 29 29 29 29 29 29 30 32 35 37 39 42 45 47 50 56 58 62 70 83 93 94 101 103 103 101 100 96 91 87 88 91 86 85 77 70 70 70 68 60 60 63
30 31 31 32 32 33 33 35 37 39 40 43 46 50 54 57 59 61 63 66 68 70 73 76 85 93 90 89 95 96 94 91 85 94 92 84 79 83 79 73 70 69 69
29 31 32 33 34 36 38 39 42 44 45 48 52 54 56 59 62 65 67 70 72 75 76 76 75 76 78 78 82 85 92 89 88 90 91 88 86 88 85 82 76 76 76
31 33 34 36 38 40 43 45 48 52 54 57 59 59 60 62 66 69 72 75 78 78 78 79 79 80 77 77 80 81 82 85 84 82 85 86 90 88 83 86 85 83 79
34 36 38 40 41 44 47 50 54 57 60 62 63 68 68 70 70 69 70 71 72 76 80 82 79 79 79 81 82 81 82 84 83 81 84 81 83 85 85 82 82 80 80
37 39 40 42 45 47 51 54 57 60 65 67 70 71 70 63 57 53 52 53 54 59 62 67 71 70 73 76 76 78 79 79 79 78 80 80 78 80 79 77 76 76 74
38 40 42 44 47 50 54 55 58 65 68 69 73 64 50 47 47 47 43 42 46 49 49 48 50 52 55 58 65 67 69 71 71 71 73 76 74 73 73 72 68 56 68
40 42 45 47 49 53 55 58 61 65 66 70 63 48 44 39 36 36 37 38 40 42 39 37 37 39 42 44 45 46 51 56 60 61 64 67 67 67 66 65 64 62 59
Wind_Direction
268 278 276 275 272 265 252 244 241 238 239 244 249 250 252 252 253 254 257 259 259 261 262 264 265 266 267 268 268 269 271 274 277 278 279 280 281 281 282 282 282 289 293
262 259 266 274 274 272 270 265 256 249 245 241 242 247 251 253 254 255 258 259 261 262 262 261 262 263 264 267 268 268 270 274 274 274 275 275 275 274 274 273 274 281 288
267 266 263 260 267 273 272 272 270 266 259 254 250 246 248 254 257 260 260 261 262 263 263 264 263 263 263 266 267 269 271 272 270 271 273 275 275 271 266 264 270 277 282
262 264 267 266 264 264 266 271 271 273 270 266 261 259 256 253 255 257 260 262 263 264 264 264 264 263 263 264 266 269 270 269 268 269 271 272 272 267 264 264 269 273 277
261 260 260 262 265 264 263 263 267 271 271 271 267 266 266 265 264 262 262 263 263 263 262 263 263 263 264 264 265 265 267 269 270 272 269 266 263 262 262 264 270 274 275
259 260 261 260 259 261 262 263 263 265 269 272 272 270 269 268 268 268 267 266 265 265 264 263 262 263 265 266 266 267 267 267 268 268 266 263 262 262 264 266 269 271 272
261 259 259 260 261 260 259 261 261 260 261 263 266 269 269 270 272 274 272 270 268 265 264 265 265 264 263 262 263 263 265 266 265 263 262 261 260 262 263 266 270 272 273
257 259 261 262 262 262 262 260 260 260 261 262 263 264 265 267 269 269 269 270 270 270 270 268 268 267 267 268 267 266 264 262 262 262 262 262 262 264 266 269 271 273 275
258 256 256 258 259 260 261 261 261 261 261 261 262 263 263 263 263 266 266 265 266 266 268 270 268 267 267 269 269 269 270 270 266 263 263 263 263 263 265 269 272 275 276
264 262 258 255 255 256 256 259 260 261 262 261 261 263 265 267 267 262 263 264 262 263 263 265 268 269 267 266 267 267 268 269 270 269 267 267 267 266 267 270 272 274 277
261 259 260 260 258 254 255 255 256 257 259 261 262 262 261 263 262 272 269 258 260 262 264 264 262 264 264 265 266 267 265 265 266 267 268 269 268 268 268 269 271 272 274
268 262 257 256 256 256 255 254 256 257 257 258 259 260 264 270 266 269 267 267 260 258 268 264 267 265 263 261 260 260 260 260 262 264 264 264 265 266 268 268 269 271 272
298 287 268 261 254 252 254 254 254 256 257 258 258 259 261 263 263 269 269 272 272 274 273 277 264 264 261 259 259 258 258 256 256 257 259 261 264 267 268 269 270 272 273
302 303 300 271 260 254 252 252 255 256 256 257 258 258 259 262 266 269 268 271 273 275 272 271 270 276 270 258 252 254 256 259 259 258 260 262 263 263 265 268 269 271 274
312 318 337 298 266 261 257 253 252 255 257 258 258 260 260 261 262 261 264 266 267 272 274 265 267 272 269 271 257 261 251 254 257 259 259 259 262 261 262 264 264 267 270
329 335 338 344 339 312 297 281 271 261 255 258 260 260 260 262 264 265 266 266 267 269 269 273 262 265 271 271 273 270 282 275 259 253 253 259 260 259 264 263 264 267 267
333 336 337 339 339 334 331 325 310 291 283 275 269 266 264 263 263 264 267 268 268 268 269 270 268 269 273 274 277 277 275 283 280 282 269 279 261 260 263 263 271 268 268
328 329 330 331 330 326 322 321 315 309 304 296 286 281 278 278 277 273 268 268 269 271 269 268 270 271 272 271 271 273 274 278 279 279 280 278 267 275 271 264 270 266 269
321 322 323 323 323 321 318 315 310 306 301 296 291 288 284 280 279 277 277 276 276 276 276 272 270 271 272 272 271 270 269 269 273 276 275 273 272 272 274 273 270 273 274
317 318 319 320 318 317 314 312 313 309 304 298 293 288 284 280 278 278 278 278 276 274 273 273 275 275 275 275 274 272 270 268 266 268 271 271 269 271 271 270 269 271 274
320 322 321 320 320 320 320 317 316 314 311 308 305 299 291 285 280 278 277 276 275 275 273 271 269 268 269 269 270 270 271 270 268 266 265 266 265 266 267 267 264 264 267
321 321 323 324 325 326 325 324 322 320 317 315 311 306 301 294 288 284 281 278 276 273 272 271 269 267 265 265 264 264 265 266 266 263 261 263 264 263 259 261 262 262 261
324 324 326 327 327 327 328 327 326 323 319 315 312 310 307 303 298 293 288 285 281 278 274 270 267 266 264 264 262 261 260 261 261 259 259 258 258 259 259 257 257 258 258
328 328 327 327 328 329 330 330 327 323 319 318 316 315 312 307 302 299 295 296 296 292 288 280 275 268 261 259 259 259 259 260 260 260 259 258 256 257 257 256 257 257 255
330 329 328 328 330 331 332 328 325 323 324 322 323 317 312 307 304 302 304 305 310 305 296 289 282 277 274 267 261 260 258 258 258 259 262 263 262 260 259 259 258 252 257
331 332 331 331 332 332 330 326 323 326 326 326 321 315 312 313 312 312 314 317 317 316 315 302 289 280 274 272 271 265 261 258 259 257 259 259 261 261 259 258 258 253 247